timestamp,wind_dir_avg,wind_spd_avg,wind_spd_max_dir,wind_spd_gust,battery_voltage,lat,long
2021-04-06 00:04:01+00:00,53.0,8.73,51.0,9.46,12.57,47.59359,-54.27349
2021-04-06 00:14:01+00:00,51.0,10.02,49.0,10.87,12.49,47.59359,-54.27349
2021-04-06 00:24:01+00:00,51.0,9.57,48.0,10.77,12.49,47.59359,-54.27349
2021-04-06 00:34:01+00:00,46.0,9.67,45.0,12.74,12.49,47.59359,-54.27349
2021-04-06 00:44:01+00:00,46.0,9.14,46.0,10.2,12.49,47.59359,-54.27349
2021-04-06 00:54:01+00:00,44.0,8.47,41.0,9.72,12.49,47.59359,-54.27349
2021-04-06 01:04:01+00:00,47.0,10.15,47.0,11.16,12.49,47.59359,-54.27349
2021-04-06 01:14:01+00:00,48.0,10.95,52.0,12.34,12.49,47.59359,-54.27349
2021-04-06 01:24:01+00:00,53.0,9.34,49.0,10.57,12.49,47.59359,-54.27349
2021-04-06 01:34:01+00:00,47.0,10.92,46.0,12.29,12.49,47.59359,-54.27349
2021-04-06 01:44:01+00:00,49.0,9.63,49.0,10.62,12.49,47.59359,-54.27349
2021-04-06 01:54:01+00:00,51.0,9.74,50.0,10.65,12.49,47.59359,-54.27349
2021-04-06 02:04:01+00:00,48.0,9.42,50.0,10.26,12.49,47.59359,-54.27349
2021-04-06 02:14:01+00:00,49.0,9.31,48.0,10.4,12.49,47.59359,-54.27349
2021-04-06 02:24:01+00:00,48.0,10.19,45.0,11.0,12.49,47.59359,-54.27349
2021-04-06 02:34:01+00:00,50.0,9.54,48.0,10.88,12.49,47.59359,-54.27349
2021-04-06 02:44:01+00:00,49.0,9.71,53.0,10.5,12.49,47.59359,-54.27349
2021-04-06 02:54:01+00:00,50.0,9.21,41.0,10.96,12.49,47.59359,-54.27349
2021-04-06 03:04:01+00:00,48.0,9.45,49.0,10.3,12.49,47.59359,-54.27349
2021-04-06 03:14:01+00:00,45.0,9.91,46.0,10.92,12.49,47.59359,-54.27349
2021-04-06 03:24:01+00:00,48.0,9.19,42.0,9.95,12.49,47.59359,-54.27349
2021-04-06 03:34:01+00:00,47.0,9.16,48.0,9.87,12.49,47.59359,-54.27349
2021-04-06 03:44:01+00:00,53.0,9.08,52.0,10.01,12.49,47.59359,-54.27349
2021-04-06 03:54:01+00:00,49.0,8.75,50.0,9.72,12.49,47.59359,-54.27349
2021-04-06 04:04:01+00:00,48.0,9.13,51.0,10.55,12.49,47.59359,-54.27349
2021-04-06 04:14:01+00:00,45.0,8.47,42.0,9.47,12.41,47.59359,-54.27349
2021-04-06 04:24:01+00:00,45.0,7.96,45.0,8.83,12.41,47.59359,-54.27349
2021-04-06 04:34:01+00:00,46.0,9.34,44.0,10.05,12.41,47.59359,-54.27349
2021-04-06 04:44:01+00:00,53.0,9.24,51.0,10.07,12.41,47.59359,-54.27349
2021-04-06 04:54:01+00:00,51.0,9.12,51.0,9.91,12.41,47.59359,-54.27349
2021-04-06 05:04:01+00:00,50.0,10.02,49.0,11.25,12.41,47.59359,-54.27349
2021-04-06 05:14:01+00:00,50.0,8.63,59.0,11.15,12.41,47.59359,-54.27349
2021-04-06 05:24:01+00:00,50.0,8.4,47.0,9.29,12.41,47.59359,-54.27349
2021-04-06 05:34:01+00:00,51.0,8.63,52.0,9.83,12.41,47.59359,-54.27349
2021-04-06 05:44:01+00:00,54.0,7.96,55.0,8.98,12.41,47.59359,-54.27349
2021-04-06 05:54:01+00:00,49.0,9.28,49.0,10.34,12.41,47.59359,-54.27349
2021-04-06 06:04:01+00:00,48.0,9.76,47.0,10.97,12.41,47.59359,-54.27349
2021-04-06 06:14:01+00:00,48.0,9.06,48.0,10.22,12.41,47.59359,-54.27349
2021-04-06 06:24:01+00:00,44.0,9.51,46.0,10.41,12.41,47.59359,-54.27349
2021-04-06 06:34:01+00:00,48.0,9.46,47.0,10.73,12.41,47.59359,-54.27349
2021-04-06 06:44:01+00:00,48.0,10.33,46.0,11.71,12.41,47.59359,-54.27349
2021-04-06 06:54:01+00:00,45.0,10.96,53.0,13.52,12.41,47.59359,-54.27349
2021-04-06 07:04:01+00:00,48.0,10.94,48.0,11.92,12.41,47.59359,-54.27349
2021-04-06 07:14:01+00:00,49.0,9.91,43.0,11.67,12.41,47.59359,-54.27349
2021-04-06 07:24:01+00:00,45.0,10.5,49.0,11.41,12.41,47.59359,-54.27349
2021-04-06 07:34:01+00:00,42.0,10.0,42.0,10.72,12.41,47.59359,-54.27349
2021-04-06 07:44:01+00:00,40.0,9.29,39.0,9.97,12.41,47.59359,-54.27349
2021-04-06 07:54:01+00:00,41.0,8.26,40.0,8.92,12.41,47.59359,-54.27349
2021-04-06 08:04:01+00:00,45.0,9.07,47.0,9.68,12.41,47.59359,-54.27349
2021-04-06 08:14:01+00:00,40.0,8.87,42.0,9.85,12.33,47.59359,-54.27349
2021-04-06 08:24:01+00:00,38.0,7.6,40.0,8.47,12.33,47.59359,-54.27349
2021-04-06 08:34:01+00:00,46.0,8.02,47.0,8.67,12.33,47.59359,-54.27349
2021-04-06 08:44:01+00:00,46.0,8.07,48.0,8.81,12.33,47.59359,-54.27349
2021-04-06 08:54:01+00:00,48.0,7.12,48.0,7.65,12.33,47.59359,-54.27349
2021-04-06 09:04:01+00:00,53.0,7.62,52.0,8.47,12.33,47.59359,-54.27349
2021-04-06 09:14:01+00:00,51.0,8.14,51.0,8.99,12.33,47.59359,-54.27349
2021-04-06 09:24:01+00:00,51.0,8.49,52.0,9.32,12.33,47.59359,-54.27349
2021-04-06 09:34:01+00:00,51.0,9.44,50.0,10.13,12.33,47.59359,-54.27349
2021-04-06 09:44:01+00:00,56.0,8.66,54.0,9.28,12.33,47.59359,-54.27349
2021-04-06 09:54:01+00:00,46.0,8.08,43.0,8.56,12.33,47.59359,-54.27349
2021-04-06 10:04:01+00:00,44.0,9.1,45.0,12.74,12.33,47.59359,-54.27349
2021-04-06 10:14:01+00:00,44.0,7.99,46.0,8.54,12.33,47.59359,-54.27349
2021-04-06 10:24:01+00:00,44.0,9.15,46.0,9.98,12.33,47.59359,-54.27349
2021-04-06 10:34:01+00:00,50.0,8.68,52.0,9.37,12.33,47.59359,-54.27349
2021-04-06 10:44:01+00:00,48.0,9.54,49.0,10.02,12.33,47.59359,-54.27349
2021-04-06 10:54:01+00:00,48.0,10.16,45.0,10.84,12.33,47.59359,-54.27349
2021-04-06 11:04:01+00:00,47.0,9.91,43.0,11.04,12.33,47.59359,-54.27349
2021-04-06 11:14:01+00:00,47.0,9.33,48.0,10.78,12.49,47.59359,-54.27349
2021-04-06 11:24:01+00:00,45.0,9.82,43.0,11.05,12.49,47.59359,-54.27349
2021-04-06 11:34:01+00:00,43.0,9.53,40.0,10.49,12.49,47.59359,-54.27349
2021-04-06 11:44:01+00:00,47.0,9.92,48.0,10.75,12.49,47.59359,-54.27349
2021-04-06 11:54:01+00:00,45.0,8.72,46.0,9.97,12.49,47.59359,-54.27349
2021-04-06 12:04:01+00:00,43.0,8.93,46.0,10.57,12.49,47.59359,-54.27349
2021-04-06 12:14:01+00:00,41.0,9.2,47.0,10.73,12.81,47.59359,-54.27349
2021-04-06 12:24:01+00:00,40.0,10.03,44.0,11.34,12.81,47.59359,-54.27349
2021-04-06 12:34:01+00:00,40.0,9.83,39.0,10.92,12.81,47.59359,-54.27349
2021-04-06 12:44:01+00:00,46.0,9.29,47.0,9.88,12.81,47.59359,-54.27349
2021-04-06 12:54:01+00:00,46.0,10.37,44.0,11.14,12.81,47.59359,-54.27349
2021-04-06 13:04:01+00:00,52.0,9.67,52.0,10.86,12.81,47.59359,-54.27349
2021-04-06 13:14:01+00:00,51.0,9.02,52.0,9.81,13.6,47.59359,-54.27349
2021-04-06 13:24:01+00:00,48.0,8.85,49.0,9.91,13.6,47.59359,-54.27349
2021-04-06 13:34:01+00:00,47.0,7.86,38.0,9.03,13.6,47.59359,-54.27349
2021-04-06 13:44:01+00:00,37.0,6.84,36.0,7.82,13.6,47.59359,-54.27349
2021-04-06 13:54:01+00:00,42.0,5.98,42.0,7.2,13.6,47.59359,-54.27349
2021-04-06 14:04:01+00:00,41.0,6.47,41.0,7.65,13.6,47.59359,-54.27349
2021-04-06 14:14:01+00:00,51.0,5.5,51.0,6.43,13.68,47.59359,-54.27349
2021-04-06 14:24:01+00:00,52.0,7.83,52.0,9.03,13.68,47.59359,-54.27349
2021-04-06 14:34:01+00:00,45.0,8.28,42.0,9.44,13.68,47.59359,-54.27349
2021-04-06 14:44:01+00:00,47.0,8.9,43.0,9.83,13.68,47.59359,-54.27349
2021-04-06 14:54:01+00:00,46.0,9.31,46.0,10.03,13.68,47.59359,-54.27349
2021-04-06 15:04:01+00:00,42.0,9.14,39.0,10.05,13.68,47.59359,-54.27349
2021-04-06 15:14:01+00:00,44.0,9.27,43.0,10.65,13.92,47.59359,-54.27349
2021-04-06 15:24:01+00:00,48.0,10.2,50.0,11.16,13.92,47.59359,-54.27349
2021-04-06 15:34:01+00:00,50.0,11.52,59.0,13.17,13.92,47.59359,-54.27349
2021-04-06 15:44:01+00:00,53.0,12.59,56.0,14.87,13.92,47.59359,-54.27349
2021-04-06 15:54:01+00:00,50.0,10.64,54.0,12.71,13.92,47.59359,-54.27349
2021-04-06 16:04:01+00:00,51.0,10.82,53.0,12.23,13.92,47.59359,-54.27349
2021-04-06 16:14:01+00:00,47.0,11.91,41.0,12.92,13.76,47.59359,-54.27349
2021-04-06 16:24:01+00:00,45.0,10.89,45.0,11.78,13.76,47.59359,-54.27349
2021-04-06 16:34:01+00:00,50.0,9.65,53.0,10.66,13.76,47.59359,-54.27349
2021-04-06 16:44:01+00:00,49.0,9.59,49.0,11.16,13.76,47.59359,-54.27349
2021-04-06 16:54:01+00:00,52.0,8.53,53.0,10.15,13.76,47.59359,-54.27349
2021-04-06 17:04:01+00:00,51.0,8.61,53.0,9.77,13.76,47.59359,-54.27349
2021-04-06 17:14:01+00:00,51.0,9.93,52.0,11.33,13.92,47.59359,-54.27349
2021-04-06 17:24:01+00:00,53.0,10.31,55.0,11.56,13.92,47.59359,-54.27349
2021-04-06 17:34:01+00:00,58.0,8.91,58.0,9.94,13.92,47.59359,-54.27349
2021-04-06 17:44:01+00:00,58.0,9.6,58.0,10.4,13.92,47.59359,-54.27349
2021-04-06 17:54:01+00:00,58.0,8.73,55.0,9.88,13.92,47.59359,-54.27349
2021-04-06 18:04:01+00:00,53.0,8.57,50.0,9.65,13.92,47.59359,-54.27349
2021-04-06 18:14:01+00:00,56.0,8.81,53.0,9.95,13.84,47.59359,-54.27349
2021-04-06 18:24:01+00:00,57.0,8.69,56.0,9.61,13.84,47.59359,-54.27349
2021-04-06 18:34:01+00:00,56.0,8.69,59.0,9.61,13.84,47.59359,-54.27349
2021-04-06 18:44:01+00:00,54.0,9.08,55.0,10.21,13.84,47.59359,-54.27349
2021-04-06 18:54:01+00:00,57.0,8.38,51.0,9.41,13.84,47.59359,-54.27349
2021-04-06 19:04:01+00:00,54.0,7.46,56.0,8.32,13.84,47.59359,-54.27349
2021-04-06 19:14:01+00:00,40.0,7.06,43.0,7.91,13.6,47.59359,-54.27349
2021-04-06 19:24:01+00:00,32.0,6.41,36.0,7.4,13.6,47.59359,-54.27349
2021-04-06 19:34:01+00:00,36.0,6.83,38.0,7.82,13.6,47.59359,-54.27349
2021-04-06 19:44:01+00:00,35.0,5.38,36.0,6.69,13.6,47.59359,-54.27349
2021-04-06 19:54:01+00:00,46.0,7.64,43.0,8.86,13.6,47.59359,-54.27349
2021-04-06 20:04:01+00:00,51.0,9.43,50.0,10.23,13.6,47.59359,-54.27349
2021-04-06 20:14:01+00:00,57.0,8.96,52.0,10.3,13.37,47.59359,-54.27349
2021-04-06 20:24:01+00:00,52.0,8.23,53.0,8.88,13.37,47.59359,-54.27349
2021-04-06 20:34:01+00:00,44.0,8.49,44.0,9.66,13.37,47.59359,-54.27349
2021-04-06 20:44:01+00:00,43.0,9.17,42.0,10.32,13.37,47.59359,-54.27349
2021-04-06 20:54:01+00:00,42.0,8.69,43.0,9.43,13.37,47.59359,-54.27349
2021-04-06 21:04:01+00:00,42.0,7.78,44.0,8.46,13.37,47.59359,-54.27349
2021-04-06 21:14:01+00:00,38.0,8.13,40.0,9.2,13.05,47.59359,-54.27349
2021-04-06 21:24:01+00:00,40.0,8.35,42.0,8.94,13.05,47.59359,-54.27349
2021-04-06 21:34:01+00:00,45.0,8.99,48.0,9.64,13.05,47.59359,-54.27349
2021-04-06 21:44:01+00:00,45.0,9.09,44.0,9.75,13.05,47.59359,-54.27349
2021-04-06 21:54:01+00:00,42.0,9.19,44.0,9.98,13.05,47.59359,-54.27349
2021-04-06 22:04:01+00:00,45.0,9.25,43.0,9.97,13.05,47.59359,-54.27349
2021-04-06 22:14:01+00:00,45.0,9.58,45.0,10.11,12.65,47.59359,-54.27349
2021-04-06 22:24:01+00:00,42.0,9.55,44.0,10.27,12.65,47.59359,-54.27349
2021-04-06 22:34:01+00:00,39.0,9.51,41.0,10.34,12.65,47.59359,-54.27349
2021-04-06 22:44:01+00:00,42.0,7.57,47.0,8.65,12.65,47.59359,-54.27349
2021-04-06 22:54:01+00:00,35.0,7.27,36.0,7.93,12.65,47.59359,-54.27349
2021-04-06 23:04:01+00:00,33.0,8.17,29.0,8.86,12.65,47.59359,-54.27349
2021-04-06 23:14:01+00:00,35.0,9.17,36.0,9.97,12.57,47.59359,-54.27349
2021-04-06 23:24:01+00:00,38.0,9.19,40.0,10.26,12.57,47.59359,-54.27349
2021-04-06 23:34:01+00:00,42.0,9.56,44.0,10.31,12.57,47.59359,-54.27349
2021-04-06 23:44:01+00:00,44.0,9.68,42.0,10.65,12.57,47.59359,-54.27349
2021-04-06 23:54:01+00:00,44.0,9.7,42.0,10.49,12.57,47.59359,-54.27349
